Weather History for YTRE - May, 2013

Change the Weather History Date:

Wednesday, May 15, 2013

  Actual Average Record
Temperature  
Mean Temperature 56 °F -  
Max Temperature 68 °F - - ()
Min Temperature 44 °F - - ()
Degree Days  
Heating Degree Days 9    
Growing Degree Days 6 (Base 50)    
Moisture  
Dew Point 48 °F    
Average Humidity 75    
Maximum Humidity 100    
Minimum Humidity 29    
Precipitation  
Precipitation 0.01 in - - ()
Sea Level Pressure  
Sea Level Pressure 29.91 in    
Wind  
Wind Speed 5 mph ()    
Max Wind Speed 9 mph    
Max Gust Speed -    
T = Trace of Precipitation, MM = Missing Value Source: Averaged Metar Reports

Daily Weather History Graph

Daily Weather History Graph

Search for Another Location

Airport or City:

Trip Planner

Search our weather history database for the weather conditions in past years. The results will help you decide how hot, cold, wet, or windy it might be!

Date:

Astronomy

May. 15, 2013 Rise Set
Actual Time 6:31 AM AEST 5:01 PM AEST
Civil Twilight 6:05 AM AEST 5:27 PM AEST
Nautical Twilight 5:35 AM AEST 5:56 PM AEST
Astronomical Twilight 5:06 AM AEST 6:25 PM AEST
Moon 10:23 AM AEST (5/15) 9:15 PM AEST (5/15)
Length of Visible Light 11h 22m
Length of Day
10h 30m
Waxing Crescent, 22% of the Moon is Illuminated
May 15
Waxing Crescent
May 18
First Quarter
May 25
Full
Jun 1
Last Quarter
Jun 9
New

Hourly Weather History & Observations

Time (AEST) Temp. Dew Point Humidity Pressure Visibility Wind Dir Wind Speed Gust Speed Precip Events Conditions
12:00 AM 57 °F 56 °F 97% 29.90 in - West 5.8 mph - -  
12:00 AM 57.2 °F 57.2 °F 100% 29.89 in - West 5.8 mph - N/A   Unknown
1:00 AM 55.4 °F 55.4 °F 100% 29.89 in - West 5.8 mph - N/A   Unknown
1:28 AM 55.4 °F 53.6 °F 94% 29.89 in - West 5.8 mph - N/A   Mostly Cloudy
1:30 AM 55.4 °F 53.6 °F 94% 29.89 in - West 5.8 mph - N/A   Mostly Cloudy
2:00 AM 53.6 °F 53.6 °F 100% 29.89 in - West 6.9 mph - N/A   Scattered Clouds
3:00 AM 53 °F 52 °F 95% 29.90 in - WSW 5.8 mph - -  
3:00 AM 51.8 °F 51.8 °F 100% 29.89 in - WSW 5.8 mph - N/A   Unknown
4:00 AM 50.0 °F 50.0 °F 100% 29.89 in - WSW 5.8 mph - N/A   Unknown
5:00 AM 50.0 °F 48.2 °F 94% 29.92 in - West 5.8 mph - N/A   Unknown
6:00 AM 49 °F 48 °F 93% 29.94 in - WSW 4.6 mph - -  
6:00 AM 50.0 °F 48.2 °F 94% 29.92 in - WSW 4.6 mph - N/A   Unknown
7:00 AM 46.4 °F 44.6 °F 93% 29.95 in - Calm Calm - N/A   Scattered Clouds
8:00 AM 51.8 °F 48.2 °F 88% 29.95 in - West 5.8 mph - N/A   Unknown
9:00 AM 56 °F 48 °F 68% 29.97 in - WNW 5.8 mph - -  
9:00 AM 55.4 °F 48.2 °F 77% 29.95 in - WNW 5.8 mph - N/A   Unknown
10:00 AM 60.8 °F 46.4 °F 59% 29.95 in - WNW 5.8 mph - N/A   Unknown
11:00 AM 64.4 °F 42.8 °F 45% 29.95 in - WNW 9.2 mph - N/A   Unknown
12:00 PM 65 °F 41 °F 29% 29.92 in - West 8.1 mph - -  
12:00 PM 66.2 °F 41.0 °F 40% 29.92 in - West 8.1 mph - N/A   Unknown
1:00 PM 66.2 °F 42.8 °F 43% 29.86 in - NW 5.8 mph - N/A   Unknown
2:00 PM 68.0 °F 42.8 °F 40% 29.86 in - NNW 6.9 mph - N/A   Unknown
3:00 PM 67 °F 44 °F 31% 29.86 in - NNW 4.6 mph - -  
3:00 PM 66.2 °F 44.6 °F 46% 29.86 in - NNW 4.6 mph - N/A   Unknown
4:00 PM 66.2 °F 46.4 °F 49% 29.86 in - NNE 3.5 mph - N/A   Unknown
5:00 PM 60.8 °F 46.4 °F 59% 29.86 in - NNE 4.6 mph - N/A   Unknown
6:00 PM 56 °F 48 °F 66% 29.89 in - NW 3.5 mph - -  
6:00 PM 57.2 °F 48.2 °F 72% 29.89 in - NW 3.5 mph - N/A   Unknown
7:00 PM 55.4 °F 50.0 °F 82% 29.89 in - East 2.3 mph - N/A   Unknown
8:00 PM 50.0 °F 46.4 °F 87% 29.92 in - North 3.5 mph - N/A   Unknown
9:00 PM 52 °F 46 °F 75% 29.92 in - NNW 5.8 mph - -  
9:00 PM 51.8 °F 46.4 °F 82% 29.92 in - NNW 5.8 mph - N/A   Unknown
10:00 PM 50.0 °F 46.4 °F 87% 29.92 in - Calm Calm - N/A   Unknown
11:00 PM 51.8 °F 48.2 °F 88% 29.92 in - West 4.6 mph - N/A   Unknown